Time,TemperatureF,DewpointF,PressureIn,WindDirection,WindDirectionDegrees,WindSpeedMPH,WindSpeedGustMPH,Humidity,HourlyPrecipIn,Conditions,Clouds,dailyrainin,SoftwareType,DateUTC
2013-02-04 00:01:00,19.9,12.0,29.79,West,270,0.0,2.5,71,0.00,,,0.00,WUHU21623XXSP,2013-02-04 05:01:00,
2013-02-04 00:02:00,19.9,12.0,29.79,West,270,0.0,2.5,71,0.00,,,0.00,WUHU21623XXSP,2013-02-04 05:02:00,
2013-02-04 00:04:00,19.9,12.0,29.79,West,270,0.0,2.5,71,0.00,,,0.00,WUHU21623XXSP,2013-02-04 05:04:00,
2013-02-04 00:12:00,19.9,12.0,29.79,WNW,292,0.0,0.0,71,0.00,,,0.00,WUHU21623XXSP,2013-02-04 05:12:00,
2013-02-04 00:17:00,19.6,11.6,29.79,WNW,292,0.0,0.0,71,0.00,,,0.00,WUHU21623XXSP,2013-02-04 05:17:00,
2013-02-04 00:22:00,19.4,11.4,29.79,West,270,0.0,0.0,71,0.00,,,0.00,WUHU21623XXSP,2013-02-04 05:22:00,
2013-02-04 00:27:00,19.2,11.6,29.79,SSW,202,0.0,1.6,72,0.00,,,0.00,WUHU21623XXSP,2013-02-04 05:27:00,
2013-02-04 00:32:00,19.0,11.1,29.78,SSW,202,0.0,1.6,71,0.00,,,0.00,WUHU21623XXSP,2013-02-04 05:32:00,
2013-02-04 00:37:00,19.0,11.1,29.78,South,180,0.0,0.0,71,0.00,,,0.00,WUHU21623XXSP,2013-02-04 05:37:00,
2013-02-04 00:42:00,19.2,11.0,29.78,SW,225,0.0,4.0,70,0.00,,,0.00,WUHU21623XXSP,2013-02-04 05:42:00,
2013-02-04 00:47:00,19.2,11.0,29.78,SW,225,0.0,4.0,70,0.00,,,0.00,WUHU21623XXSP,2013-02-04 05:47:00,
2013-02-04 00:52:00,19.0,10.8,29.78,SW,225,0.0,0.0,70,0.00,,,0.00,WUHU21623XXSP,2013-02-04 05:52:00,
2013-02-04 00:57:00,19.0,10.8,29.78,SSW,202,0.0,0.0,70,0.00,,,0.00,WUHU21623XXSP,2013-02-04 05:57:00,
2013-02-04 01:02:00,19.0,10.8,29.79,SSW,202,0.0,0.0,70,0.00,,,0.00,WUHU21623XXSP,2013-02-04 06:02:00,
2013-02-04 01:07:00,18.9,10.6,29.78,WSW,247,0.0,0.0,70,0.00,,,0.00,WUHU21623XXSP,2013-02-04 06:07:00,
2013-02-04 01:12:00,18.9,10.6,29.78,SW,225,0.0,0.0,70,0.00,,,0.00,WUHU21623XXSP,2013-02-04 06:12:00,
2013-02-04 01:17:00,19.0,10.8,29.78,SSW,202,0.0,0.0,70,0.00,,,0.00,WUHU21623XXSP,2013-02-04 06:17:00,
2013-02-04 01:22:00,19.0,11.1,29.78,SSW,202,0.0,0.9,71,0.00,,,0.00,WUHU21623XXSP,2013-02-04 06:22:00,
2013-02-04 01:27:00,19.2,11.0,29.78,South,180,0.0,4.3,70,0.00,,,0.00,WUHU21623XXSP,2013-02-04 06:27:00,
2013-02-04 01:32:00,19.2,11.0,29.78,West,270,0.0,4.3,70,0.00,,,0.00,WUHU21623XXSP,2013-02-04 06:32:00,
2013-02-04 01:37:00,19.2,11.0,29.78,WSW,247,0.0,1.8,70,0.00,,,0.00,WUHU21623XXSP,2013-02-04 06:37:00,
2013-02-04 01:42:00,19.4,11.1,29.78,SSE,157,0.0,4.9,70,0.00,,,0.00,WUHU21623XXSP,2013-02-04 06:42:00,
2013-02-04 01:47:00,19.6,11.0,29.78,WSW,247,0.0,8.9,69,0.00,,,0.00,WUHU21623XXSP,2013-02-04 06:47:00,
2013-02-04 01:52:00,19.6,11.0,29.78,SSW,202,0.0,8.9,69,0.00,,,0.00,WUHU21623XXSP,2013-02-04 06:52:00,
2013-02-04 01:57:00,19.6,11.3,29.78,South,180,0.0,4.0,70,0.00,,,0.00,WUHU21623XXSP,2013-02-04 06:57:00,
2013-02-04 02:02:00,19.6,11.0,29.78,WSW,247,0.0,4.0,69,0.00,,,0.00,WUHU21623XXSP,2013-02-04 07:02:00,
2013-02-04 02:07:00,19.6,11.3,29.78,WNW,292,0.0,6.5,70,0.00,,,0.00,WUHU21623XXSP,2013-02-04 07:07:00,
2013-02-04 02:12:00,19.6,11.6,29.79,WNW,292,0.0,6.5,71,0.00,,,0.00,WUHU21623XXSP,2013-02-04 07:12:00,
2013-02-04 02:17:00,19.4,11.4,29.78,SSW,202,0.0,0.0,71,0.00,,,0.00,WUHU21623XXSP,2013-02-04 07:17:00,
2013-02-04 02:22:00,19.2,11.2,29.78,SSW,202,0.0,0.0,71,0.00,,,0.00,WUHU21623XXSP,2013-02-04 07:22:00,
2013-02-04 02:27:00,19.0,11.1,29.78,West,270,0.0,6.7,71,0.00,,,0.00,WUHU21623XXSP,2013-02-04 07:27:00,
2013-02-04 02:32:00,19.2,11.2,29.78,SSE,157,5.4,6.7,71,0.00,,,0.00,WUHU21623XXSP,2013-02-04 07:32:00,
2013-02-04 02:37:00,19.2,11.2,29.78,WSW,247,0.0,11.6,71,0.00,,,0.00,WUHU21623XXSP,2013-02-04 07:37:00,
2013-02-04 02:42:00,19.2,11.2,29.77,SSW,202,0.0,11.6,71,0.00,,,0.00,WUHU21623XXSP,2013-02-04 07:42:00,
2013-02-04 02:47:00,19.2,11.2,29.78,ESE,112,0.0,4.3,71,0.00,,,0.00,WUHU21623XXSP,2013-02-04 07:47:00,
2013-02-04 02:52:00,19.2,11.2,29.78,SSW,202,0.0,4.0,71,0.00,,,0.00,WUHU21623XXSP,2013-02-04 07:52:00,
2013-02-04 02:57:00,19.2,11.2,29.78,SSW,202,0.0,4.0,71,0.00,,,0.00,WUHU21623XXSP,2013-02-04 07:57:00,
2013-02-04 03:02:00,19.2,11.2,29.77,SE,135,0.0,0.0,71,0.00,,,0.00,WUHU21623XXSP,2013-02-04 08:02:00,
2013-02-04 03:07:00,19.2,11.2,29.77,SSW,202,0.0,5.8,71,0.00,,,0.00,WUHU21623XXSP,2013-02-04 08:07:00,
2013-02-04 03:12:00,19.2,11.2,29.77,NNW,337,0.0,6.0,71,0.00,,,0.00,WUHU21623XXSP,2013-02-04 08:12:00,
2013-02-04 03:17:00,19.2,11.2,29.77,SE,135,0.0,6.0,71,0.00,,,0.00,WUHU21623XXSP,2013-02-04 08:17:00,
2013-02-04 03:22:00,19.0,11.1,29.77,SSW,202,3.6,10.1,71,0.00,,,0.00,WUHU21623XXSP,2013-02-04 08:22:00,
2013-02-04 03:27:00,19.0,10.8,29.77,SE,135,0.0,11.0,70,0.00,,,0.00,WUHU21623XXSP,2013-02-04 08:27:00,
2013-02-04 03:32:00,19.0,10.8,29.77,SSW,202,0.0,11.0,70,0.00,,,0.00,WUHU21623XXSP,2013-02-04 08:32:00,
2013-02-04 03:37:00,19.0,10.8,29.76,South,180,0.0,8.7,70,0.00,,,0.00,WUHU21623XXSP,2013-02-04 08:37:00,
2013-02-04 03:42:00,18.9,10.9,29.76,ESE,112,0.0,5.8,71,0.00,,,0.00,WUHU21623XXSP,2013-02-04 08:42:00,
2013-02-04 03:47:00,18.7,10.8,29.76,SW,225,0.0,10.5,71,0.00,,,0.00,WUHU21623XXSP,2013-02-04 08:47:00,
2013-02-04 03:52:00,18.5,10.9,29.76,SSW,202,2.0,10.5,72,0.00,,,0.00,WUHU21623XXSP,2013-02-04 08:52:00,
2013-02-04 03:57:00,18.5,10.9,29.76,SW,225,0.0,8.5,72,0.00,,,0.00,WUHU21623XXSP,2013-02-04 08:57:00,
2013-02-04 04:02:00,18.7,10.8,29.76,SSW,202,0.0,10.5,71,0.00,,,0.00,WUHU21623XXSP,2013-02-04 09:02:00,
2013-02-04 04:07:00,18.7,11.1,29.76,NNW,337,0.0,10.5,72,0.00,,,0.00,WUHU21623XXSP,2013-02-04 09:07:00,
2013-02-04 04:12:00,18.5,10.9,29.77,SSW,202,3.1,10.5,72,0.00,,,0.00,WUHU21623XXSP,2013-02-04 09:12:00,
2013-02-04 04:17:00,18.7,11.1,29.77,South,180,3.6,13.0,72,0.00,,,0.00,WUHU21623XXSP,2013-02-04 09:17:00,
2013-02-04 04:22:00,18.5,10.9,29.77,SSW,202,0.0,13.0,72,0.00,,,0.00,WUHU21623XXSP,2013-02-04 09:22:00,
2013-02-04 04:27:00,18.5,10.9,29.77,SSE,157,0.0,13.4,72,0.00,,,0.00,WUHU21623XXSP,2013-02-04 09:27:00,
2013-02-04 04:32:00,18.5,10.9,29.77,West,270,0.0,13.4,72,0.00,,,0.00,WUHU21623XXSP,2013-02-04 09:32:00,
2013-02-04 04:37:00,18.5,10.9,29.77,SW,225,0.0,9.4,72,0.00,,,0.00,WUHU21623XXSP,2013-02-04 09:37:00,
2013-02-04 04:42:00,18.7,11.1,29.77,SE,135,0.0,8.9,72,0.00,,,0.00,WUHU21623XXSP,2013-02-04 09:42:00,
2013-02-04 04:47:00,18.7,11.1,29.77,SW,225,4.0,11.2,72,0.00,,,0.00,WUHU21623XXSP,2013-02-04 09:47:00,
2013-02-04 04:52:00,18.7,11.1,29.78,SSW,202,0.0,11.2,72,0.00,,,0.00,WUHU21623XXSP,2013-02-04 09:52:00,
2013-02-04 04:57:00,18.7,11.1,29.78,South,180,0.0,8.9,72,0.00,,,0.00,WUHU21623XXSP,2013-02-04 09:57:00,
2013-02-04 05:02:00,18.5,10.9,29.78,SW,225,8.5,8.5,72,0.00,,,0.00,WUHU21623XXSP,2013-02-04 10:02:00,
2013-02-04 05:07:00,18.5,10.9,29.78,South,180,11.2,11.2,72,0.00,,,0.00,WUHU21623XXSP,2013-02-04 10:07:00,
2013-02-04 05:12:00,18.3,10.7,29.78,SE,135,0.0,11.2,72,0.00,,,0.00,WUHU21623XXSP,2013-02-04 10:12:00,
2013-02-04 05:17:00,18.1,10.6,29.77,West,270,0.0,8.3,72,0.00,,,0.00,WUHU21623XXSP,2013-02-04 10:17:00,
2013-02-04 05:22:00,18.0,10.4,29.78,SW,225,0.7,14.3,72,0.00,,,0.00,WUHU21623XXSP,2013-02-04 10:22:00,
2013-02-04 05:27:00,18.1,10.6,29.79,WNW,292,0.0,17.4,72,0.00,,,0.00,WUHU21623XXSP,2013-02-04 10:27:00,
2013-02-04 05:32:00,18.0,10.4,29.78,WNW,292,0.0,17.4,72,0.00,,,0.00,WUHU21623XXSP,2013-02-04 10:32:00,
2013-02-04 05:37:00,18.0,10.4,29.79,SE,135,4.0,15.9,72,0.00,,,0.00,WUHU21623XXSP,2013-02-04 10:37:00,
2013-02-04 05:42:00,17.8,10.2,29.78,SSE,157,4.5,15.9,72,0.00,,,0.00,WUHU21623XXSP,2013-02-04 10:42:00,
2013-02-04 05:47:00,17.8,10.2,29.78,South,180,8.3,16.3,72,0.00,,,0.00,WUHU21623XXSP,2013-02-04 10:47:00,
2013-02-04 05:52:00,17.8,10.2,29.78,WSW,247,0.0,16.3,72,0.00,,,0.00,WUHU21623XXSP,2013-02-04 10:52:00,
2013-02-04 05:57:00,17.8,9.9,29.79,WSW,247,1.8,9.2,71,0.00,,,0.00,WUHU21623XXSP,2013-02-04 10:57:00,
2013-02-04 06:02:00,17.8,10.2,29.79,West,270,0.9,6.9,72,0.00,,,0.00,WUHU21623XXSP,2013-02-04 11:02:00,
2013-02-04 06:07:00,17.8,9.9,29.79,NW,315,1.6,10.1,71,0.00,,,0.00,WUHU21623XXSP,2013-02-04 11:07:00,
2013-02-04 06:12:00,17.8,9.9,29.80,West,270,0.0,10.1,71,0.00,,,0.00,WUHU21623XXSP,2013-02-04 11:12:00,
2013-02-04 06:17:00,17.8,9.7,29.80,SW,225,0.0,7.8,70,0.00,,,0.00,WUHU21623XXSP,2013-02-04 11:17:00,
2013-02-04 06:22:00,17.8,9.7,29.80,WSW,247,0.0,7.8,70,0.00,,,0.00,WUHU21623XXSP,2013-02-04 11:22:00,
2013-02-04 06:27:00,17.8,9.7,29.80,NE,45,4.7,7.8,70,0.00,,,0.00,WUHU21623XXSP,2013-02-04 11:27:00,
2013-02-04 06:32:00,17.8,9.7,29.80,WSW,247,0.0,7.4,70,0.00,,,0.00,WUHU21623XXSP,2013-02-04 11:32:00,
2013-02-04 06:37:00,17.8,9.7,29.80,WNW,292,0.0,8.7,70,0.00,,,0.00,WUHU21623XXSP,2013-02-04 11:37:00,
2013-02-04 06:42:00,17.4,9.3,29.80,SW,225,5.6,11.6,70,0.00,,,0.00,WUHU21623XXSP,2013-02-04 11:42:00,
2013-02-04 06:47:00,17.4,9.0,29.80,SSW,202,1.6,11.6,69,0.00,,,0.00,WUHU21623XXSP,2013-02-04 11:47:00,
2013-02-04 06:52:00,17.4,9.0,29.81,WSW,247,0.0,8.7,69,0.00,,,0.00,WUHU21623XXSP,2013-02-04 11:52:00,
2013-02-04 06:57:00,17.2,8.8,29.80,WNW,292,0.0,7.4,69,0.00,,,0.00,WUHU21623XXSP,2013-02-04 11:57:00,
2013-02-04 07:02:00,17.2,8.8,29.80,South,180,0.0,8.1,69,0.00,,,0.00,WUHU21623XXSP,2013-02-04 12:02:00,
2013-02-04 07:07:00,17.1,8.6,29.81,WNW,292,5.8,8.1,69,0.00,,,0.00,WUHU21623XXSP,2013-02-04 12:07:00,
2013-02-04 07:12:00,16.9,8.1,29.81,SSW,202,0.0,8.1,68,0.00,,,0.00,WUHU21623XXSP,2013-02-04 12:12:00,
2013-02-04 07:17:00,16.9,8.1,29.81,WNW,292,0.0,8.5,68,0.00,,,0.00,WUHU21623XXSP,2013-02-04 12:17:00,
2013-02-04 07:22:00,16.9,8.1,29.82,West,270,0.0,8.5,68,0.00,,,0.00,WUHU21623XXSP,2013-02-04 12:22:00,
2013-02-04 07:27:00,16.9,8.1,29.82,West,270,0.0,8.1,68,0.00,,,0.00,WUHU21623XXSP,2013-02-04 12:27:00,
2013-02-04 07:32:00,16.9,8.1,29.82,SSE,157,2.5,8.1,68,0.00,,,0.00,WUHU21623XXSP,2013-02-04 12:32:00,
2013-02-04 07:37:00,17.2,8.5,29.82,SE,135,7.4,12.3,68,0.00,,,0.00,WUHU21623XXSP,2013-02-04 12:37:00,
2013-02-04 07:42:00,17.2,8.5,29.83,North,0,0.0,12.3,68,0.00,,,0.00,WUHU21623XXSP,2013-02-04 12:42:00,
2013-02-04 07:47:00,17.2,8.5,29.83,WNW,292,0.0,7.8,68,0.00,,,0.00,WUHU21623XXSP,2013-02-04 12:47:00,
2013-02-04 07:52:00,17.4,8.6,29.83,SSW,202,2.9,6.9,68,0.00,,,0.00,WUHU21623XXSP,2013-02-04 12:52:00,
2013-02-04 07:57:00,17.4,8.6,29.84,West,270,0.0,9.8,68,0.00,,,0.00,WUHU21623XXSP,2013-02-04 12:57:00,
2013-02-04 08:02:00,17.4,8.3,29.83,SE,135,3.4,9.8,67,0.00,,,0.00,WUHU21623XXSP,2013-02-04 13:02:00,
2013-02-04 08:07:00,17.4,8.3,29.83,SSE,157,0.0,9.6,67,0.00,,,0.00,WUHU21623XXSP,2013-02-04 13:07:00,
2013-02-04 08:12:00,17.4,8.6,29.83,ESE,112,0.0,8.5,68,0.00,,,0.00,WUHU21623XXSP,2013-02-04 13:12:00,
2013-02-04 08:17:00,17.4,8.6,29.83,WNW,292,0.0,8.5,68,0.00,,,0.00,WUHU21623XXSP,2013-02-04 13:17:00,
2013-02-04 08:22:00,17.4,8.3,29.83,ENE,67,0.0,11.6,67,0.00,,,0.00,WUHU21623XXSP,2013-02-04 13:22:00,
2013-02-04 08:27:00,17.6,8.1,29.83,South,180,3.4,11.6,66,0.00,,,0.00,WUHU21623XXSP,2013-02-04 13:27:00,
2013-02-04 08:32:00,17.4,8.0,29.83,SW,225,0.0,6.7,66,0.00,,,0.00,WUHU21623XXSP,2013-02-04 13:32:00,
2013-02-04 08:37:00,17.6,8.1,29.84,WSW,247,0.0,9.6,66,0.00,,,0.00,WUHU21623XXSP,2013-02-04 13:37:00,
2013-02-04 08:42:00,17.8,8.3,29.83,WNW,292,0.0,12.8,66,0.00,,,0.00,WUHU21623XXSP,2013-02-04 13:42:00,
2013-02-04 08:47:00,17.8,8.0,29.83,NNW,337,1.6,12.8,65,0.00,,,0.00,WUHU21623XXSP,2013-02-04 13:47:00,
2013-02-04 08:52:00,17.8,8.0,29.83,SSE,157,0.0,7.8,65,0.00,,,0.00,WUHU21623XXSP,2013-02-04 13:52:00,
2013-02-04 08:57:00,17.8,8.0,29.83,South,180,0.0,7.8,65,0.00,,,0.00,WUHU21623XXSP,2013-02-04 13:57:00,
2013-02-04 09:02:00,17.8,7.6,29.82,SW,225,0.0,8.5,64,0.00,,,0.00,WUHU21623XXSP,2013-02-04 14:02:00,
2013-02-04 09:07:00,17.8,7.6,29.82,South,180,4.3,8.5,64,0.00,,,0.00,WUHU21623XXSP,2013-02-04 14:07:00,
2013-02-04 09:12:00,18.0,7.8,29.82,SSW,202,4.5,9.2,64,0.00,,,0.00,WUHU21623XXSP,2013-02-04 14:12:00,
2013-02-04 09:17:00,18.3,8.1,29.82,WNW,292,0.0,9.2,64,0.00,,,0.00,WUHU21623XXSP,2013-02-04 14:17:00,
2013-02-04 09:22:00,18.7,8.1,29.82,WSW,247,0.0,18.8,63,0.00,,,0.00,WUHU21623XXSP,2013-02-04 14:22:00,
2013-02-04 09:27:00,18.5,7.6,29.82,NW,315,0.0,18.8,62,0.00,,,0.00,WUHU21623XXSP,2013-02-04 14:27:00,
2013-02-04 09:32:00,18.9,7.9,29.82,WSW,247,3.4,11.9,62,0.00,,,0.00,WUHU21623XXSP,2013-02-04 14:32:00,
2013-02-04 09:37:00,19.2,7.9,29.82,SSW,202,0.0,5.6,61,0.00,,,0.00,WUHU21623XXSP,2013-02-04 14:37:00,
2013-02-04 09:42:00,19.4,8.0,29.82,SSE,157,0.0,7.8,61,0.00,,,0.00,WUHU21623XXSP,2013-02-04 14:42:00,
2013-02-04 09:47:00,19.6,7.9,29.82,West,270,0.0,8.5,60,0.00,,,0.00,WUHU21623XXSP,2013-02-04 14:47:00,
2013-02-04 09:52:00,19.6,7.9,29.82,West,270,0.0,8.5,60,0.00,,,0.00,WUHU21623XXSP,2013-02-04 14:52:00,
2013-02-04 09:57:00,20.1,8.4,29.82,West,270,3.8,13.4,60,0.00,,,0.00,WUHU21623XXSP,2013-02-04 14:57:00,
2013-02-04 10:02:00,20.1,8.8,29.82,SSW,202,0.0,13.4,61,0.00,,,0.00,WUHU21623XXSP,2013-02-04 15:02:00,
2013-02-04 10:07:00,20.7,9.0,29.82,SE,135,2.0,9.4,60,0.00,,,0.00,WUHU21623XXSP,2013-02-04 15:07:00,
2013-02-04 10:12:00,20.5,8.4,29.83,NE,45,2.5,10.3,59,0.00,,,0.00,WUHU21623XXSP,2013-02-04 15:12:00,
2013-02-04 10:17:00,20.5,7.6,29.82,West,270,2.7,10.3,57,0.00,,,0.00,WUHU21623XXSP,2013-02-04 15:17:00,
2013-02-04 10:22:00,20.5,7.6,29.82,West,270,0.0,10.1,57,0.00,,,0.00,WUHU21623XXSP,2013-02-04 15:22:00,
2013-02-04 10:27:00,20.5,7.6,29.82,SSW,202,5.1,12.1,57,0.00,,,0.00,WUHU21623XXSP,2013-02-04 15:27:00,
2013-02-04 10:32:00,20.5,7.1,29.82,West,270,4.3,12.1,56,0.00,,,0.00,WUHU21623XXSP,2013-02-04 15:32:00,
2013-02-04 10:37:00,20.7,6.9,29.82,WNW,292,0.0,19.0,55,0.00,,,0.00,WUHU21623XXSP,2013-02-04 15:37:00,
2013-02-04 10:42:00,21.0,6.8,29.81,WSW,247,2.0,19.0,54,0.00,,,0.00,WUHU21623XXSP,2013-02-04 15:42:00,
2013-02-04 10:47:00,21.6,6.9,29.81,WSW,247,3.8,14.8,53,0.00,,,0.00,WUHU21623XXSP,2013-02-04 15:47:00,
2013-02-04 10:52:00,21.9,6.9,29.80,West,270,3.6,11.6,52,0.00,,,0.00,WUHU21623XXSP,2013-02-04 15:52:00,
2013-02-04 10:57:00,22.3,6.8,29.81,NE,45,0.0,10.5,51,0.00,,,0.00,WUHU21623XXSP,2013-02-04 15:57:00,
2013-02-04 11:02:00,22.8,7.0,29.81,WNW,292,0.0,9.6,50,0.00,,,0.00,WUHU21623XXSP,2013-02-04 16:02:00,
2013-02-04 11:07:00,22.8,7.0,29.81,SW,225,0.0,9.8,50,0.00,,,0.00,WUHU21623XXSP,2013-02-04 16:07:00,
2013-02-04 11:12:00,23.5,7.2,29.80,WSW,247,11.0,11.0,49,0.00,,,0.00,WUHU21623XXSP,2013-02-04 16:12:00,
2013-02-04 11:17:00,23.2,6.3,29.80,NNW,337,0.0,16.8,48,0.00,,,0.00,WUHU21623XXSP,2013-02-04 16:17:00,
2013-02-04 11:22:00,23.4,6.5,29.80,NW,315,2.5,16.8,48,0.00,,,0.00,WUHU21623XXSP,2013-02-04 16:22:00,
2013-02-04 11:27:00,23.4,6.0,29.80,SSW,202,6.0,15.9,47,0.00,,,0.00,WUHU21623XXSP,2013-02-04 16:27:00,
2013-02-04 11:32:00,23.2,5.9,29.80,West,270,0.0,11.9,47,0.00,,,0.00,WUHU21623XXSP,2013-02-04 16:32:00,
2013-02-04 11:37:00,23.7,6.3,29.80,SSE,157,0.0,11.9,47,0.00,,,0.00,WUHU21623XXSP,2013-02-04 16:37:00,
2013-02-04 11:42:00,23.5,5.7,29.79,WNW,292,2.0,22.4,46,0.00,,,0.00,WUHU21623XXSP,2013-02-04 16:42:00,
2013-02-04 11:47:00,23.7,6.8,29.80,WSW,247,3.4,22.4,48,0.00,,,0.00,WUHU21623XXSP,2013-02-04 16:47:00,
2013-02-04 11:52:00,23.4,5.1,29.80,WSW,247,6.3,14.5,45,0.00,,,0.00,WUHU21623XXSP,2013-02-04 16:52:00,
2013-02-04 11:57:00,23.2,5.4,29.80,SW,225,0.0,16.3,46,0.00,,,0.00,WUHU21623XXSP,2013-02-04 16:57:00,
2013-02-04 12:02:00,22.8,4.6,29.80,WNW,292,4.7,26.8,45,0.00,,,0.00,WUHU21623XXSP,2013-02-04 17:02:00,
2013-02-04 12:07:00,22.6,5.3,29.80,South,180,4.3,26.8,47,0.00,,,0.00,WUHU21623XXSP,2013-02-04 17:07:00,
2013-02-04 12:12:00,23.2,5.9,29.80,ENE,67,2.7,13.6,47,0.00,,,0.00,WUHU21623XXSP,2013-02-04 17:12:00,
2013-02-04 12:17:00,23.5,6.2,29.80,SSE,157,15.7,15.7,47,0.00,,,0.00,WUHU21623XXSP,2013-02-04 17:17:00,
2013-02-04 12:22:00,23.7,6.8,29.80,West,270,0.0,15.7,48,0.00,,,0.00,WUHU21623XXSP,2013-02-04 17:22:00,
2013-02-04 12:27:00,23.7,6.3,29.80,West,270,0.0,22.1,47,0.00,,,0.00,WUHU21623XXSP,2013-02-04 17:27:00,
2013-02-04 12:32:00,23.7,6.3,29.80,WSW,247,0.0,22.1,47,0.00,,,0.00,WUHU21623XXSP,2013-02-04 17:32:00,
2013-02-04 12:37:00,23.7,6.3,29.79,South,180,7.4,16.6,47,0.00,,,0.00,WUHU21623XXSP,2013-02-04 17:37:00,
2013-02-04 12:42:00,23.7,6.3,29.80,NNE,22,0.0,15.7,47,0.00,,,0.00,WUHU21623XXSP,2013-02-04 17:42:00,
2013-02-04 12:47:00,23.7,6.3,29.79,WNW,292,0.0,17.2,47,0.00,,,0.00,WUHU21623XXSP,2013-02-04 17:47:00,
2013-02-04 12:52:00,23.7,6.3,29.79,West,270,2.2,17.2,47,0.00,,,0.00,WUHU21623XXSP,2013-02-04 17:52:00,
2013-02-04 12:57:00,23.5,6.7,29.79,SSW,202,3.6,17.2,48,0.00,,,0.00,WUHU21623XXSP,2013-02-04 17:57:00,
2013-02-04 13:02:00,23.0,6.2,29.80,East,90,10.5,19.9,48,0.00,,,0.00,WUHU21623XXSP,2013-02-04 18:02:00,
2013-02-04 13:07:00,22.5,6.1,29.79,SE,135,6.7,19.9,49,0.00,,,0.00,WUHU21623XXSP,2013-02-04 18:07:00,
2013-02-04 13:12:00,22.1,6.7,29.80,SW,225,2.7,18.1,51,0.00,,,0.00,WUHU21623XXSP,2013-02-04 18:12:00,
2013-02-04 13:17:00,22.1,7.1,29.80,SW,225,0.0,12.8,52,0.00,,,0.00,WUHU21623XXSP,2013-02-04 18:17:00,
2013-02-04 13:22:00,21.9,7.3,29.80,SSW,202,0.0,10.7,53,0.00,,,0.00,WUHU21623XXSP,2013-02-04 18:22:00,
2013-02-04 13:27:00,21.7,7.1,29.80,SW,225,1.3,10.7,53,0.00,,,0.00,WUHU21623XXSP,2013-02-04 18:27:00,
2013-02-04 13:32:00,21.9,7.7,29.80,West,270,0.0,11.6,54,0.00,,,0.00,WUHU21623XXSP,2013-02-04 18:32:00,
2013-02-04 13:37:00,21.9,7.7,29.80,NW,315,2.0,11.6,54,0.00,,,0.00,WUHU21623XXSP,2013-02-04 18:37:00,
2013-02-04 13:42:00,21.7,7.5,29.81,SSE,157,4.7,8.5,54,0.00,,,0.00,WUHU21623XXSP,2013-02-04 18:42:00,
2013-02-04 13:47:00,21.6,7.8,29.80,SE,135,2.0,14.1,55,0.00,,,0.00,WUHU21623XXSP,2013-02-04 18:47:00,
2013-02-04 13:52:00,21.6,8.2,29.80,West,270,0.0,14.1,56,0.00,,,0.00,WUHU21623XXSP,2013-02-04 18:52:00,
2013-02-04 13:57:00,21.9,8.5,29.80,South,180,1.8,9.4,56,0.00,,,0.00,WUHU21623XXSP,2013-02-04 18:57:00,
2013-02-04 14:02:00,21.9,8.1,29.80,West,270,0.0,15.2,55,0.00,,,0.00,WUHU21623XXSP,2013-02-04 19:02:00,
2013-02-04 14:07:00,21.9,7.7,29.80,ENE,67,6.0,15.2,54,0.00,,,0.00,WUHU21623XXSP,2013-02-04 19:07:00,
2013-02-04 14:12:00,21.9,7.7,29.80,NNE,22,0.0,10.7,54,0.00,,,0.00,WUHU21623XXSP,2013-02-04 19:12:00,
2013-02-04 14:17:00,22.1,6.7,29.80,West,270,0.0,8.9,51,0.00,,,0.00,WUHU21623XXSP,2013-02-04 19:17:00,
2013-02-04 14:22:00,22.5,6.6,29.80,West,270,2.9,8.9,50,0.00,,,0.00,WUHU21623XXSP,2013-02-04 19:22:00,
2013-02-04 14:27:00,22.1,5.3,29.80,SSW,202,4.3,12.5,48,0.00,,,0.00,WUHU21623XXSP,2013-02-04 19:27:00,
2013-02-04 14:32:00,22.3,5.5,29.80,ESE,112,6.7,12.5,48,0.00,,,0.00,WUHU21623XXSP,2013-02-04 19:32:00,
2013-02-04 14:37:00,22.8,5.5,29.80,WNW,292,8.5,12.3,47,0.00,,,0.00,WUHU21623XXSP,2013-02-04 19:37:00,
2013-02-04 14:42:00,23.0,4.7,29.80,West,270,0.0,13.6,45,0.00,,,0.00,WUHU21623XXSP,2013-02-04 19:42:00,
2013-02-04 14:47:00,23.5,5.2,29.80,West,270,5.8,13.6,45,0.00,,,0.00,WUHU21623XXSP,2013-02-04 19:47:00,
2013-02-04 14:52:00,23.9,4.6,29.81,SW,225,0.0,10.1,43,0.00,,,0.00,WUHU21623XXSP,2013-02-04 19:52:00,
2013-02-04 14:57:00,24.4,5.1,29.81,SE,135,0.0,11.9,43,0.00,,,0.00,WUHU21623XXSP,2013-02-04 19:57:00,
2013-02-04 15:02:00,24.1,4.7,29.81,South,180,6.5,18.6,43,0.00,,,0.00,WUHU21623XXSP,2013-02-04 20:02:00,
2013-02-04 15:07:00,23.2,4.9,29.81,South,180,0.0,18.6,45,0.00,,,0.00,WUHU21623XXSP,2013-02-04 20:07:00,
2013-02-04 15:12:00,22.8,4.6,29.82,WSW,247,0.0,13.2,45,0.00,,,0.00,WUHU21623XXSP,2013-02-04 20:12:00,
2013-02-04 15:17:00,22.5,4.2,29.81,WNW,292,4.9,13.2,45,0.00,,,0.00,WUHU21623XXSP,2013-02-04 20:17:00,
2013-02-04 15:22:00,22.6,5.3,29.81,NW,315,3.6,13.2,47,0.00,,,0.00,WUHU21623XXSP,2013-02-04 20:22:00,
2013-02-04 15:27:00,22.8,5.0,29.81,SW,225,7.2,10.1,46,0.00,,,0.00,WUHU21623XXSP,2013-02-04 20:27:00,
2013-02-04 15:32:00,22.5,4.7,29.81,WNW,292,0.0,10.1,46,0.00,,,0.00,WUHU21623XXSP,2013-02-04 20:32:00,
2013-02-04 15:37:00,22.1,3.9,29.81,SW,225,2.7,16.3,45,0.00,,,0.00,WUHU21623XXSP,2013-02-04 20:37:00,
2013-02-04 15:41:00,21.9,3.2,29.80,SW,225,8.7,16.3,44,0.00,,,0.00,WUHU21623XXSP,2013-02-04 20:41:00,
2013-02-04 15:42:00,21.9,3.2,29.80,WSW,247,0.0,16.3,44,0.00,,,0.00,WUHU21623XXSP,2013-02-04 20:42:00,
2013-02-04 15:53:00,21.7,3.1,29.81,SSW,202,7.4,15.9,44,0.00,,,0.00,WUHU21623XXSP,2013-02-04 20:53:00,
2013-02-04 15:59:00,21.6,2.9,29.81,WNW,292,0.0,15.0,44,0.00,,,0.00,WUHU21623XXSP,2013-02-04 20:59:00,
2013-02-04 16:04:00,21.4,3.2,29.82,SW,225,1.3,14.1,45,0.00,,,0.00,WUHU21623XXSP,2013-02-04 21:04:00,
2013-02-04 16:09:00,21.4,2.7,29.82,SSE,157,0.0,12.1,44,0.00,,,0.00,WUHU21623XXSP,2013-02-04 21:09:00,
2013-02-04 16:13:00,21.0,2.4,29.82,West,270,3.4,15.4,44,0.00,,,0.00,WUHU21623XXSP,2013-02-04 21:13:00,
2013-02-04 16:18:00,20.8,2.2,29.82,SW,225,7.4,15.4,44,0.00,,,0.00,WUHU21623XXSP,2013-02-04 21:18:00,
2013-02-04 16:23:00,21.0,2.4,29.82,SW,225,0.0,23.0,44,0.00,,,0.00,WUHU21623XXSP,2013-02-04 21:23:00,
2013-02-04 16:28:00,20.8,2.2,29.83,NW,315,0.0,23.0,44,0.00,,,0.00,WUHU21623XXSP,2013-02-04 21:28:00,
2013-02-04 16:33:00,20.8,2.2,29.83,SSE,157,4.7,13.9,44,0.00,,,0.00,WUHU21623XXSP,2013-02-04 21:33:00,
2013-02-04 16:38:00,20.5,1.9,29.83,SSE,157,0.0,13.9,44,0.00,,,0.00,WUHU21623XXSP,2013-02-04 21:38:00,
2013-02-04 16:43:00,20.5,2.4,29.83,SSW,202,8.7,13.0,45,0.00,,,0.00,WUHU21623XXSP,2013-02-04 21:43:00,
2013-02-04 16:48:00,20.5,2.4,29.83,WSW,247,9.6,13.0,45,0.00,,,0.00,WUHU21623XXSP,2013-02-04 21:48:00,
2013-02-04 16:53:00,20.1,2.0,29.84,West,270,0.0,14.8,45,0.00,,,0.00,WUHU21623XXSP,2013-02-04 21:53:00,
2013-02-04 16:58:00,20.1,2.0,29.84,WSW,247,3.1,14.8,45,0.00,,,0.00,WUHU21623XXSP,2013-02-04 21:58:00,
2013-02-04 17:03:00,19.9,1.9,29.84,WNW,292,6.0,10.1,45,0.00,,,0.00,WUHU21623XXSP,2013-02-04 22:03:00,
2013-02-04 17:08:00,19.8,1.7,29.83,SW,225,6.3,11.0,45,0.00,,,0.00,WUHU21623XXSP,2013-02-04 22:08:00,
2013-02-04 17:13:00,19.6,1.6,29.84,SW,225,5.6,11.0,45,0.00,,,0.00,WUHU21623XXSP,2013-02-04 22:13:00,
2013-02-04 17:18:00,19.6,2.0,29.83,South,180,8.5,18.1,46,0.00,,,0.00,WUHU21623XXSP,2013-02-04 22:18:00,
2013-02-04 17:23:00,19.4,1.4,29.84,South,180,5.4,18.1,45,0.00,,,0.00,WUHU21623XXSP,2013-02-04 22:23:00,
2013-02-04 17:28:00,19.2,1.2,29.84,NNW,337,0.0,12.3,45,0.00,,,0.00,WUHU21623XXSP,2013-02-04 22:28:00,
2013-02-04 17:33:00,19.2,1.7,29.85,SSE,157,7.6,12.3,46,0.00,,,0.00,WUHU21623XXSP,2013-02-04 22:33:00,
2013-02-04 17:38:00,19.2,1.7,29.85,SSW,202,0.0,15.2,46,0.00,,,0.00,WUHU21623XXSP,2013-02-04 22:38:00,
2013-02-04 17:43:00,19.0,2.0,29.85,SW,225,1.8,17.7,47,0.00,,,0.00,WUHU21623XXSP,2013-02-04 22:43:00,
2013-02-04 17:48:00,19.0,2.0,29.85,NW,315,2.0,17.7,47,0.00,,,0.00,WUHU21623XXSP,2013-02-04 22:48:00,
2013-02-04 17:53:00,19.0,2.5,29.86,SSW,202,5.1,11.0,48,0.00,,,0.00,WUHU21623XXSP,2013-02-04 22:53:00,
2013-02-04 17:58:00,19.0,2.0,29.86,West,270,2.7,11.0,47,0.00,,,0.00,WUHU21623XXSP,2013-02-04 22:58:00,
2013-02-04 18:03:00,19.0,1.5,29.86,WSW,247,0.4,11.6,46,0.00,,,0.00,WUHU21623XXSP,2013-02-04 23:03:00,
2013-02-04 18:08:00,18.9,1.4,29.86,West,270,0.0,12.1,46,0.00,,,0.00,WUHU21623XXSP,2013-02-04 23:08:00,
2013-02-04 18:13:00,18.7,1.7,29.86,SW,225,1.6,16.8,47,0.00,,,0.00,WUHU21623XXSP,2013-02-04 23:13:00,
2013-02-04 18:18:00,18.7,1.7,29.86,SSW,202,0.0,16.8,47,0.00,,,0.00,WUHU21623XXSP,2013-02-04 23:18:00,
2013-02-04 18:23:00,18.7,1.7,29.87,WSW,247,0.0,11.9,47,0.00,,,0.00,WUHU21623XXSP,2013-02-04 23:23:00,
2013-02-04 18:28:00,18.5,1.5,29.87,West,270,0.0,15.9,47,0.00,,,0.00,WUHU21623XXSP,2013-02-04 23:28:00,
2013-02-04 18:33:00,18.3,1.4,29.87,WSW,247,0.0,15.9,47,0.00,,,0.00,WUHU21623XXSP,2013-02-04 23:33:00,
2013-02-04 18:38:00,18.3,1.4,29.87,SSW,202,0.0,12.1,47,0.00,,,0.00,WUHU21623XXSP,2013-02-04 23:38:00,
2013-02-04 18:43:00,18.3,1.8,29.88,SSE,157,9.4,12.1,48,0.00,,,0.00,WUHU21623XXSP,2013-02-04 23:43:00,
2013-02-04 18:48:00,18.3,1.8,29.87,WSW,247,0.0,13.0,48,0.00,,,0.00,WUHU21623XXSP,2013-02-04 23:48:00,
2013-02-04 18:54:00,18.1,1.7,29.88,SW,225,2.7,13.0,48,0.00,,,0.00,WUHU21623XXSP,2013-02-04 23:54:00,
2013-02-04 18:59:00,18.0,2.0,29.88,West,270,5.1,22.4,49,0.00,,,0.00,WUHU21623XXSP,2013-02-04 23:59:00,
2013-02-04 19:04:00,18.0,1.5,29.88,West,270,0.0,22.4,48,0.00,,,0.00,WUHU21623XXSP,2013-02-05 00:04:00,
2013-02-04 19:09:00,18.0,2.0,29.89,SW,225,0.0,12.5,49,0.00,,,0.00,WUHU21623XXSP,2013-02-05 00:09:00,
2013-02-04 19:14:00,17.8,1.8,29.89,WNW,292,0.0,19.2,49,0.00,,,0.00,WUHU21623XXSP,2013-02-05 00:14:00,
2013-02-04 19:19:00,17.8,2.3,29.89,SSE,157,4.3,19.2,50,0.00,,,0.00,WUHU21623XXSP,2013-02-05 00:19:00,
2013-02-04 19:24:00,17.8,1.8,29.89,West,270,4.0,10.1,49,0.00,,,0.00,WUHU21623XXSP,2013-02-05 00:24:00,
2013-02-04 19:29:00,17.8,1.8,29.89,South,180,0.0,13.2,49,0.00,,,0.00,WUHU21623XXSP,2013-02-05 00:29:00,
2013-02-04 19:34:00,17.4,2.0,29.89,West,270,0.0,13.2,50,0.00,,,0.00,WUHU21623XXSP,2013-02-05 00:34:00,
2013-02-04 19:39:00,17.4,2.0,29.89,WSW,247,0.0,15.4,50,0.00,,,0.00,WUHU21623XXSP,2013-02-05 00:39:00,
2013-02-04 19:44:00,17.4,2.0,29.89,SSE,157,6.7,15.4,50,0.00,,,0.00,WUHU21623XXSP,2013-02-05 00:44:00,
2013-02-04 19:49:00,17.2,1.8,29.90,West,270,6.0,13.4,50,0.00,,,0.00,WUHU21623XXSP,2013-02-05 00:49:00,
2013-02-04 19:54:00,17.2,1.5,29.89,West,270,2.7,13.4,49,0.00,,,0.00,WUHU21623XXSP,2013-02-05 00:54:00,
2013-02-04 19:59:00,17.2,1.3,29.90,SW,225,7.8,13.4,49,0.00,,,0.00,WUHU21623XXSP,2013-02-05 00:59:00,
2013-02-04 20:04:00,17.2,1.8,29.90,SSW,202,2.5,13.4,50,0.00,,,0.00,WUHU21623XXSP,2013-02-05 01:04:00,
2013-02-04 20:09:00,17.2,1.8,29.90,SW,225,0.0,14.1,50,0.00,,,0.00,WUHU21623XXSP,2013-02-05 01:09:00,
2013-02-04 20:14:00,16.9,1.5,29.90,WSW,247,0.0,14.1,50,0.00,,,0.00,WUHU21623XXSP,2013-02-05 01:14:00,
2013-02-04 20:19:00,16.7,1.7,29.90,SSW,202,0.0,12.1,51,0.00,,,0.00,WUHU21623XXSP,2013-02-05 01:19:00,
2013-02-04 20:24:00,16.7,2.5,29.91,NNE,22,2.0,12.1,53,0.00,,,0.00,WUHU21623XXSP,2013-02-05 01:24:00,
2013-02-04 20:29:00,16.7,2.1,29.91,West,270,0.0,8.5,52,0.00,,,0.00,WUHU21623XXSP,2013-02-05 01:29:00,
2013-02-04 20:34:00,16.7,2.9,29.91,SW,225,3.1,11.0,54,0.00,,,0.00,WUHU21623XXSP,2013-02-05 01:34:00,
2013-02-04 20:39:00,16.5,1.9,29.91,NNW,337,0.0,11.0,52,0.00,,,0.00,WUHU21623XXSP,2013-02-05 01:39:00,
2013-02-04 20:44:00,16.5,1.5,29.92,ESE,112,0.0,12.3,51,0.00,,,0.00,WUHU21623XXSP,2013-02-05 01:44:00,
2013-02-04 20:49:00,16.3,1.7,29.92,WSW,247,0.0,12.3,52,0.00,,,0.00,WUHU21623XXSP,2013-02-05 01:49:00,
2013-02-04 20:54:00,16.3,1.4,29.92,SW,225,2.7,18.1,51,0.00,,,0.00,WUHU21623XXSP,2013-02-05 01:54:00,
2013-02-04 20:59:00,16.3,1.7,29.92,West,270,0.0,18.1,52,0.00,,,0.00,WUHU21623XXSP,2013-02-05 01:59:00,
2013-02-04 21:04:00,16.2,2.0,29.92,WSW,247,0.0,9.8,53,0.00,,,0.00,WUHU21623XXSP,2013-02-05 02:04:00,
2013-02-04 21:09:00,16.0,1.8,29.92,South,180,0.0,9.8,53,0.00,,,0.00,WUHU21623XXSP,2013-02-05 02:09:00,
2013-02-04 21:14:00,16.0,1.8,29.92,SW,225,0.9,10.3,53,0.00,,,0.00,WUHU21623XXSP,2013-02-05 02:14:00,
2013-02-04 21:19:00,15.8,1.6,29.92,SSE,157,0.0,10.3,53,0.00,,,0.00,WUHU21623XXSP,2013-02-05 02:19:00,
2013-02-04 21:24:00,15.8,1.6,29.92,SW,225,0.0,9.6,53,0.00,,,0.00,WUHU21623XXSP,2013-02-05 02:24:00,
2013-02-04 21:29:00,15.6,1.5,29.92,SW,225,0.0,9.6,53,0.00,,,0.00,WUHU21623XXSP,2013-02-05 02:29:00,
2013-02-04 21:34:00,15.4,1.7,29.92,SSE,157,4.7,10.5,54,0.00,,,0.00,WUHU21623XXSP,2013-02-05 02:34:00,
2013-02-04 21:39:00,15.4,1.3,29.92,SW,225,1.8,11.0,53,0.00,,,0.00,WUHU21623XXSP,2013-02-05 02:39:00,
2013-02-04 21:44:00,15.4,1.3,29.92,West,270,0.0,11.0,53,0.00,,,0.00,WUHU21623XXSP,2013-02-05 02:44:00,
2013-02-04 21:49:00,15.3,1.5,29.92,SW,225,3.1,8.9,54,0.00,,,0.00,WUHU21623XXSP,2013-02-05 02:49:00,
2013-02-04 21:54:00,15.1,0.9,29.92,SSW,202,5.1,8.9,53,0.00,,,0.00,WUHU21623XXSP,2013-02-05 02:54:00,
2013-02-04 21:59:00,15.1,1.3,29.92,WSW,247,6.7,11.4,54,0.00,,,0.00,WUHU21623XXSP,2013-02-05 02:59:00,
2013-02-04 22:04:00,15.1,1.3,29.92,SW,225,7.4,11.4,54,0.00,,,0.00,WUHU21623XXSP,2013-02-05 03:04:00,
2013-02-04 22:09:00,15.1,1.3,29.92,WSW,247,0.0,14.8,54,0.00,,,0.00,WUHU21623XXSP,2013-02-05 03:09:00,
2013-02-04 22:14:00,15.1,1.3,29.92,NNW,337,2.7,14.8,54,0.00,,,0.00,WUHU21623XXSP,2013-02-05 03:14:00,
2013-02-04 22:19:00,14.9,1.1,29.92,NNE,22,0.0,11.0,54,0.00,,,0.00,WUHU21623XXSP,2013-02-05 03:19:00,
2013-02-04 22:24:00,14.9,1.1,29.92,SSW,202,1.6,13.2,54,0.00,,,0.00,WUHU21623XXSP,2013-02-05 03:24:00,
2013-02-04 22:29:00,14.9,1.1,29.93,WSW,247,0.0,13.2,54,0.00,,,0.00,WUHU21623XXSP,2013-02-05 03:29:00,
2013-02-04 22:34:00,14.9,1.1,29.93,ENE,67,0.0,5.8,54,0.00,,,0.00,WUHU21623XXSP,2013-02-05 03:34:00,
2013-02-04 22:39:00,14.7,1.0,29.93,West,270,0.0,9.2,54,0.00,,,0.00,WUHU21623XXSP,2013-02-05 03:39:00,
2013-02-04 22:44:00,14.7,1.0,29.94,SW,225,0.0,11.6,54,0.00,,,0.00,WUHU21623XXSP,2013-02-05 03:44:00,
2013-02-04 22:49:00,14.7,1.0,29.94,NNW,337,3.6,11.6,54,0.00,,,0.00,WUHU21623XXSP,2013-02-05 03:49:00,
2013-02-04 22:54:00,14.7,1.0,29.94,WSW,247,0.0,10.7,54,0.00,,,0.00,WUHU21623XXSP,2013-02-05 03:54:00,
2013-02-04 22:59:00,14.7,1.0,29.94,South,180,0.0,10.7,54,0.00,,,0.00,WUHU21623XXSP,2013-02-05 03:59:00,
2013-02-04 23:04:00,14.9,1.9,29.94,SSW,202,0.0,21.3,56,0.00,,,0.00,WUHU21623XXSP,2013-02-05 04:04:00,
2013-02-04 23:09:00,14.9,1.5,29.94,West,270,0.0,21.3,55,0.00,,,0.00,WUHU21623XXSP,2013-02-05 04:09:00,
2013-02-04 23:14:00,14.9,1.9,29.94,SSE,157,0.0,12.5,56,0.00,,,0.00,WUHU21623XXSP,2013-02-05 04:14:00,
2013-02-04 23:19:00,14.9,1.5,29.94,SSE,157,3.1,8.3,55,0.00,,,0.00,WUHU21623XXSP,2013-02-05 04:19:00,
2013-02-04 23:24:00,14.9,2.7,29.94,SSE,157,0.0,11.6,58,0.00,,,0.00,WUHU21623XXSP,2013-02-05 04:24:00,
2013-02-04 23:29:00,14.7,1.7,29.94,SSE,157,0.0,11.6,56,0.00,,,0.00,WUHU21623XXSP,2013-02-05 04:29:00,
2013-02-04 23:34:00,14.7,2.1,29.94,NE,45,0.0,4.3,57,0.00,,,0.00,WUHU21623XXSP,2013-02-05 04:34:00,
2013-02-04 23:39:00,14.7,1.7,29.94,West,270,0.0,8.3,56,0.00,,,0.00,WUHU21623XXSP,2013-02-05 04:39:00,
2013-02-04 23:44:00,14.5,1.6,29.94,ENE,67,0.0,13.9,56,0.00,,,0.00,WUHU21623XXSP,2013-02-05 04:44:00,
2013-02-04 23:49:00,14.7,1.7,29.94,SSW,202,0.0,13.9,56,0.00,,,0.00,WUHU21623XXSP,2013-02-05 04:49:00,
2013-02-04 23:54:00,14.5,1.2,29.94,South,180,0.0,5.8,55,0.00,,,0.00,WUHU21623XXSP,2013-02-05 04:54:00,
2013-02-04 23:59:00,14.5,1.6,29.94,South,180,0.0,5.8,56,0.00,,,0.00,WUHU21623XXSP,2013-02-05 04:59:00,